{"data":{"norad_id":66709,"epoch":"2026-09-19T23:04:03.209664Z","epoch_age_seconds":64867,"freshness":"FRESH","line1":"1 66709U 25276AV  26262.96114826  .00002947  00000+0  13465-3 0  9998","line2":"2 66709  97.4110 335.2514 0002709  48.4638 311.6830 15.21353773 44834","mean_motion":15.21353773,"eccentricity":0.0002709,"inclination_deg":97.411,"raan_deg":335.2514,"arg_perigee_deg":48.4638,"mean_anomaly_deg":311.683,"bstar":0.00013465,"rev_number":4483,"period_min":94.652540753912,"perigee_km":499.89245081067,"apogee_km":503.61997695395,"semimajor_km":6879.8932138823,"source":"CELESTRAK","updated_at":"2026-09-20T09:00:34.748730Z"}}